Location: Fabras
(44.6509°N, 4.2890°E)
Time: 21:52:56
(UTC+00:00)

Daily predictions for brighter satellites

Satellite Brightness Start Highest point End
(mag) Time Altitude Azimuth Time Altitude Azimuth Time Altitude Azimuth
Cosmos 1867 3.8 16:39:44 10° SSW 16:45:04 58° ESE 16:50:27 10° NE
CENTAUR R/B 4.5 16:42:49 10° WNW 16:47:40 20° NNW 16:53:02 10° NNE
ASTEX 1 3.5 16:42:54 10° N 16:47:56 83° E 16:52:56 10° S
Cosmos 1743 Rocket 3.6 16:45:27 10° N 16:49:44 56° E 16:54:02 10° SSE
Cosmos 1340 Rocket 3.4 16:49:50 10° SSW 16:53:48 62° WNW 16:57:50 10° N
Okean O Rocket 3.2 16:50:46 10° S 16:54:56 41° W 16:59:07 10° NNW
ALOS 4.0 16:52:26 10° SSW 16:56:46 38° W 17:01:08 10° NNW
NOAA 12 4.4 16:52:59 10° SE 16:58:02 45° ENE 17:03:05 10° N
Cosmos 2123 Rocket 4.1 16:53:13 10° S 16:59:26 84° W 17:05:40 10° N
CZ-4 R/B 2.8 16:56:30 10° ESE 16:59:31 20° ENE 17:02:30 10° NNE
Cosmos 1825 2.5 16:56:11 10° NNW 16:59:59 73° W 17:03:44 10° S
Cosmos 773 Rocket 4.4 16:55:12 10° S 17:00:02 43° ESE 17:04:55 10° NNE
GEOS 3 Rocket 3.7 16:54:47 10° NE 17:00:02 82° SE 17:05:19 10° SW
Cosmos 1869 4.2 16:59:52 10° SSE 17:03:17 28° E 17:06:41 10° NNE
SMAP 3.0 17:00:57 10° SSE 17:05:36 82° ENE 17:10:17 10° NNW
Cosmos 1725 Rocket 4.4 17:01:40 10° NNW 17:08:00 74° W 17:14:16 10° S
Cosmos 2219 3.2 17:04:01 10° NNW 17:09:34 58° ENE 17:15:05 10° SE
Cosmos 1238 Rocket 2.9 17:08:56 10° N 17:13:37 75° E 17:17:25 10° SSE
Cosmos 1538 Rocket 4.4 17:08:46 10° S 17:13:42 43° ESE 17:18:43 10° NNE
Cosmos 1500 Rocket 3.6 17:10:43 10° N 17:15:08 86° W 17:19:28 10° S
Cosmos 1633 Rocket 4.2 17:17:36 10° NNE 17:21:04 22° ENE 17:24:32 10° ESE
Cosmos 1633 3.6 17:20:09 10° NNE 17:23:12 24° ENE 17:26:12 10° SE
TELKOM 3 3.3 17:23:53 10° NW 17:25:55 38° NNE 17:26:21 32° NE
CSL-04 Rocket 4.2 17:21:53 10° SE 17:26:43 36° ENE 17:31:31 10° N
COSMO-SKYMED 1 3.0 17:22:49 10° NNE 17:26:56 40° E 17:31:00 10° SSE
FengYun 1-2 T 4.4 17:21:53 10° SE 17:27:12 50° ENE 17:32:30 10° N
Cosmos 2344 4.1 17:20:45 10° SW 17:28:08 59° NW 17:36:23 10° NE
COBE Rocket 3.8 17:24:37 10° NNE 17:29:30 80° ESE 17:34:11 10° S
Cosmos 1980 Rocket 3.9 17:27:31 10° ESE 17:28:59 13° ESE 17:28:59 13° ESE
Cosmos 1666 Rocket 4.2 17:26:51 10° N 17:30:49 32° ENE 17:34:45 10° SE
Cosmos 1607 3.9 17:25:02 10° NNW 17:31:12 64° NE 17:37:26 10° SE
Cosmos 2227 Rocket 2.3 17:26:28 10° NNW 17:32:03 54° ENE 17:37:35 10° SE
Cosmos 2297 Rocket 2.2 17:26:56 10° NNW 17:32:33 59° ENE 17:38:06 10° SE
Sich 1 3.1 17:33:02 10° N 17:37:16 50° ENE 17:41:31 10° SSE
Meteor 2-2 Rocket 4.3 17:32:08 10° S 17:38:02 86° ESE 17:43:52 10° NNE
YAOGAN 6 2.6 17:35:24 10° SSE 17:38:48 49° ENE 17:42:11 10° N
Cosmos 2084 3.4 17:36:02 10° NW 17:40:22 87° SW 17:44:35 10° SE
USA 215 3.8 17:37:22 19° E 17:41:35 42° NNE 17:47:39 10° NW
H-2A R/B 4.1 17:39:14 10° S 17:42:55 42° W 17:46:36 10° NNW
Envisat 3.0 17:40:01 10° SSE 17:45:06 90° WSW 17:50:14 10° NNW
Cosmos 2369 4.3 17:40:40 10° S 17:45:45 36° ESE 17:48:29 23° ENE
Cosmos 1151 Rocket 4.3 17:43:00 10° SE 17:45:19 22° ESE 17:45:19 22° ESE
USA 229 DEB 3.6 17:42:13 10° SSW 17:48:44 77° SE 17:54:26 16° NE
USA 229 3.6 17:42:19 10° SSW 17:48:51 77° SE 17:54:29 16° NE
SKYMED 3 4.4 17:46:42 10° NNE 17:51:04 73° ESE 17:55:23 10° S
Cosmos 1513 Rocket 4.5 17:45:35 10° N 17:51:59 65° E 17:58:18 10° SSE
Cosmos 1862 3.5 17:48:34 10° N 17:52:24 45° ENE 17:56:13 10° SSE
Cosmos 2034 Rocket 4.2 17:46:54 10° N 17:53:02 48° ENE 17:59:10 10° SSE
NOSS 3-1 (A) 3.5 17:48:50 10° S 17:54:04 48° ESE 17:57:10 26° ENE
NOSS 3-1 (C) 3.2 17:49:59 10° SSW 17:55:28 77° ESE 17:59:55 20° NE
Genesis I 4.2 17:51:39 10° SW 17:55:32 46° NW 17:58:15 18° NNE
YAOGAN 1 2.5 17:51:27 10° SSE 17:55:41 58° ENE 17:59:58 10° N
Cosmos 2263 Rocket 4.0 17:55:13 10° N 17:57:18 14° NNE 17:57:18 14° NNE
Cosmos 2082 3.7 17:52:49 10° NNW 17:58:22 55° ENE 18:02:34 17° SE
Okean-O 3.8 17:55:16 10° S 17:59:31 46° W 18:03:48 10° NNW
PSLV R/B 4.1 18:02:15 10° WSW 18:04:06 31° SSW 18:04:06 31° SSW
SeaSat 1 3.6 18:01:01 10° S 18:05:44 45° WSW 18:10:28 10° NW
Cosmos 2278 4.1 18:01:06 10° S 18:06:18 39° ESE 18:07:12 36° E
Cosmos 1697 Rocket 2.8 18:04:39 10° S 18:10:06 52° ESE 18:12:05 36° NE
Meteor 2-11 Rocket 4.4 18:04:12 10° N 18:10:15 62° ENE 18:16:18 10° SSE
Cosmos 1356 Rocket 3.8 18:06:31 10° SSW 18:10:35 62° WNW 18:14:47 10° N
Cosmos 2112 Rocket 4.4 18:06:56 10° S 18:11:31 40° ESE 18:11:31 40° ESE
Tsikada Rocket 4.2 18:06:37 10° SSE 18:12:36 46° E 18:18:39 10° NNE
USA 116 4.0 18:09:07 15° NNE 18:12:54 80° ESE 18:17:52 10° S
SKYMED 2 4.0 18:10:48 10° N 18:15:07 63° WNW 18:19:24 10° SSW
Lacrosse 4 Rocket 1.4 18:11:55 10° SSW 18:15:35 55° SE 18:15:35 55° SE
ATLAS 5 CENTAUR R/B 2.6 18:12:58 10° NW 18:18:49 74° SW 18:25:30 10° SSE
Cosmos 1680 Rocket 3.5 18:14:33 10° S 18:19:37 55° ESE 18:20:17 51° ENE
TRAILBLAZER 4.5 18:20:36 10° NW 18:25:14 89° NE 18:26:01 62° SE
H-2A R/B 4.3 18:31:12 12° NNE 18:31:12 12° NNE 18:31:42 10° N
Ariane Rocket 3.0 18:28:23 55° NE 18:28:23 55° NE 18:33:00 10° N
ERBS 3.9 18:29:51 10° SW 18:31:44 31° SW 18:31:44 31° SW
NOSS 2-3 (C) 4.0 18:29:51 10° SSW 18:33:13 50° S 18:33:13 50° S
CZ-4 R/B 2.8 18:30:20 10° S 18:34:16 40° W 18:38:11 10° NNW
Cosmos 724 4.2 18:32:28 10° NNW 18:38:16 61° NE 18:38:19 61° NE
NOAA 11 4.1 18:34:41 10° SSE 18:40:07 83° WSW 18:45:35 10° NNW
CENTAUR R/B 4.5 18:36:15 10° NNW 18:41:26 20° NNE 18:42:52 19° NNE
Cosmos 923 Rocket 4.1 18:38:16 10° SSW 18:43:29 72° WNW 18:45:14 42° N
Cosmos 1939 Rocket 4.5 18:53:38 30° NNW 18:53:38 30° NNW 18:55:54 10° NNW
ATLAS 3B R/B 4.5 18:53:14 10° NNW 18:57:06 16° NNE 18:57:16 16° NNE
Cosmos 1980 Rocket 3.2 19:07:31 10° SSW 19:10:50 37° SSW 19:10:50 37° SSW
Cosmos 2227 Rocket 4.3 19:11:17 10° NW 19:15:42 24° WSW 19:20:06 10° SSW
Cosmos 2297 Rocket 4.5 19:11:54 10° NW 19:16:06 22° W 19:20:17 10° SSW
USA 215 3.2 19:24:44 77° W 19:24:44 77° W 19:30:51 10° NW
Cosmos 2263 Rocket 4.3 19:37:39 10° NNW 19:39:01 18° NNW 19:39:01 18° NNW
Cosmos 1697 Rocket 4.5 19:49:33 10° WSW 19:53:54 27° WNW 19:53:54 27° WNW
